Regional Weather Roundup
Issued by NWS

Home | Current Version | Previous Version | Graphics & Text | Print | Product List | Glossary On
Versions: 1 2 3 4 5 6 7 8 9 10 11 12 13 14 15 16 17 18 19 20 21 22 23 24 25 26 27 28 29 30 31 32 33 34 35 36 37 38 39 40 41 42 43 44 45 46 47 48 49 50
000
ASUS43 KMPX 270810
RWRMN
WEATHER ROUNDUP FOR MINNESOTA
NATIONAL WEATHER SERVICE TWIN CITIES/CHANHASSEN MN
200 AM CST FRI FEB 27 2015


NOTE: "FAIR" INDICATES FEW OR NO CLOUDS BELOW 12,000 FEET WITH NO
SIGNIFICANT WEATHER AND/OR OBSTRUCTIONS TO VISIBILITY. N/A MEANS
CURRENT SKY AND/OR WEATHER CONDITIONS ARE NOT AVAILABLE.

MNZ060>063-068>070-270900-
   Twin Cities Metro

CITY           SKY/WX    TMP DP  RH WIND       PRES   REMARKS
TWIN CITIES    CLEAR      0  -9  65 W7        30.51R WCI -13
ST PAUL        CLEAR      1  -8  66 NW9       30.53R WCI -14
CRYSTAL        CLEAR      0  -9  65 W3        30.50R
BLAINE         CLEAR      0  -8  71 W6        30.49R WCI -12
LAKEVILLE      CLEAR     -6 -11  77 W3        30.50R
EDEN PRAIRIE   CLEAR     -4 -10  75 W5        30.50R WCI -15
SOUTH ST PAUL  CLEAR      0  -8  69 W3        30.51R
LAKE ELMO      FAIR       0  -9  65 W5        30.50R WCI -10
$$
MNZ001>005-007-008-013>017-022>024-027-028-270900-
   Northwest Minnesota

CITY           SKY/WX    TMP DP  RH WIND       PRES   REMARKS
BEMIDJI        CLEAR    -10 -15  80 CALM      30.39F
HALLOCK        PTCLDY   -13 -18  77 S6        30.43S WCI -27
ROSEAU         MOCLDY    -8 -13  77 SW8       30.40S WCI -23
WARROAD        PTCLDY    -6 -11  77 W6        30.38F WCI -18
THIEF RVR FALL MOCLDY    -9 N/A N/A SW5       30.41F WCI -21
CROOKSTON      PTCLDY    -9 -15  77 S5        30.47F WCI -21
FOSSTON        PTCLDY   -17 -20  83 S5        30.43S WCI -29
DETROIT LAKES  PTCLDY    -8 -11  84 CALM      30.44S
MOORHEAD       CLEAR     -6  -9  84 SW6       30.50S WCI -18
PARK RAPIDS    CLEAR    -10 -15  78 NW5       30.40R WCI -22
MAHNOMEN       FAIR     -12 -17  80 S5        30.43S WCI -24
$$
MNZ006-009>011-018-025>026-270900-
   North Central Minnesota

CITY           SKY/WX    TMP DP  RH WIND       PRES   REMARKS
BAUDETTE       PTCLDY   -12 -16  82 SW6       30.36S WCI -26
FLAG ISLAND    PTCLDY    -6  -9  84 CALM      30.36S
INTL FALLS     PTCLDY    -9 -14  78 W5        30.36S WCI -20
WASKISH        PTCLDY    -8  -9  92 SW8       30.39S WCI -23
BIG FORK       PTCLDY   -17 -24  70 CALM      30.38S
LONGVILLE      CLEAR    -18 -24  76 CALM      30.41S
GRAND RAPIDS   CLEAR     -8 -11  84 W6        30.36S WCI -21
CRANE LAKE     PTCLDY   -24 -27  83 CALM      30.39R
ORR            PTCLDY   -13 -18  77 CALM      30.33S
COOK           PTCLDY   -15 -18  84 CALM      30.36S
WALKER         FAIR     -10 -14  81 W5        30.40S WCI -21
$$
MNZ012-019>021-037-270900-
   Northeast Minnesota

CITY           SKY/WX    TMP DP  RH WIND       PRES   REMARKS
DULUTH         CLEAR     -6 -15  65 W9        30.35R WCI -23
ELY            PTCLDY   -13 -18  77 CALM      30.33S
HIBBING        PTCLDY   -11 -16  78 CALM      30.36S
EVELETH        PTCLDY    -9 -15  77 W5        30.36S WCI -21
DULUTH HARBOR  CLEAR     -2 -11  65 CALM      30.47R
TWO HARBORS    CLEAR      0 -11  60 CALM      30.36R
SILVER BAY     CLEAR     -6 -15  65 CALM      30.34S
GRAND MARAIS     N/A      1 -10  60 SW3       30.38R
G MARAIS ARPRT PTCLDY    -6 -15  65 NW9G17    30.23R WCI -22
$$
MNZ029>031-032-039>041-046>048-054>057-064-270900-
   West Central Minnesota

CITY           SKY/WX    TMP DP  RH WIND       PRES   REMARKS
FERGUS FALLS   CLEAR     -8 -15  71 W3        30.53R
WHEATON        CLEAR     -9 -15  77 W5        30.53R WCI -21
MORRIS         CLEAR    -11 -17  77 W3        30.49R
ALEXANDRIA     CLEAR     -8 -12  83 W7        30.44F WCI -23
ELBOW LAKE     FAIR      -9 -13  81 W7        30.47S WCI -23
WADENA         CLEAR     -9 -13  84 W6        30.43S WCI -23
GLENWOOD       CLEAR     -8 -11  84 W6        30.46S WCI -21
APPLETON       CLEAR    -11 -17  77 W6        30.52S WCI -25
BENSON         CLEAR     -9 -15  77 W5        30.50R WCI -21
ORTONVILLE     CLEAR     -8 -13  77 W5        30.51S WCI -19
MADISON        CLEAR     -8 -13  77 W7        30.53S WCI -22
WILLMAR        FAIR      -9 -15  77 W6        30.50S WCI -23
$$
MNZ033>034-036-042>043-049>051-058-059-270900-
   Central Minnesota

CITY           SKY/WX    TMP DP  RH WIND       PRES   REMARKS
ST CLOUD       CLEAR     -4  -9  79 W5        30.48R WCI -15
SAUK CENTRE    FAIR      -6 -10  83 W3        30.46S
PAYNESVILLE    CLEAR    -10 -13  83 SW6       30.48S WCI -23
AITKIN         CLEAR     -4 -11  71 W3        30.41S
PINE RIVER     CLEAR    -15 -20  76 CALM      30.44S
BRAINERD       CLEAR     -9 -14  78 CALM      30.44S
STAPLES        CLEAR    -11 -15  84 CALM      30.43S
LONG PRAIRIE   FAIR      -6  -9  84 CALM      30.45R
LITTLE FALLS   CLEAR     -8 -13  77 CALM      30.47S
LITCHFIELD     CLEAR     -6  -9  84 CALM      30.50R
BUFFALO        CLEAR     -2  -8  78 CALM      30.51S
MAPLE LAKE     CLEAR     -2  -7  82 CALM      30.50S
$$
MNZ037-044-045-052-053-270900-
   East Central Minnesota

CITY           SKY/WX    TMP DP  RH WIND       PRES   REMARKS
PRINCETON      CLEAR     -9 -15  77 CALM      30.48R
MORA           CLEAR    -13 -18  77 CALM      30.47S
CAMBRIDGE      CLEAR     -6 -15  65 CALM      30.47R
RUSH CITY      MOCLDY    -8 -14  74 CALM      30.47S
MOOSE LAKE     CLEAR     -4 -13  65 CALM      30.41S
HINCKLEY       FAIR      -6 -13  71 CALM      30.45S
CLOQUET        CLEAR     -6 -15  65 W6        30.38S WCI -18
MCGREGOR       CLEAR     -6 -11  77 CALM      30.42S
$$
MNZ071>073-080-081-089-090-097-098-270900-
   Southwest Minnesota

CITY           SKY/WX    TMP DP  RH WIND       PRES   REMARKS
MONTEVIDEO     CLEAR     -8 -11  84 W6        30.53S WCI -21
GRANITE FALLS  CLEAR    -12 -17  77 W6        30.55R WCI -26
CANBY          FAIR      -6 -12  75 W8        30.53S WCI -21
MARSHALL       CLEAR     -8 -15  71 W7        30.52S WCI -22
REDWOOD FALLS  CLEAR     -9 -14  78 W7        30.53S WCI -24
OLIVIA         CLEAR    -11 -17  77 W6        30.52S WCI -25
PIPESTONE      PTCLDY   -15 -18  84 CALM      30.48S
WINDOM         CLEAR    -13 -17  84 CALM      30.50R
WORTHINGTON    CLEAR     19 -24  13 W6        30.50S WCI  11
JACKSON        CLEAR     -9 -17  70 W6        30.49S WCI -23
TRACY          CLEAR     -5 -11  75 W6        30.51S WCI -17
SLAYTON        CLEAR     -9 -15  73 CALM      30.49R
$$
MNZ065>067-074>077-082>085-091>093-270900-
   South Central Minnesota

CITY           SKY/WX    TMP DP  RH WIND       PRES   REMARKS
MANKATO        CLEAR     -8 -15  71 W5        30.51R WCI -19
NEW ULM        CLEAR    -13 -18  77 W8        30.53R WCI -30
ST JAMES       CLEAR     -9 -15  77 W8        30.53S WCI -26
FAIRMONT       CLEAR     -8 -13  77 NW8       30.49R WCI -23
GLENCOE        CLEAR     -7 -10  83 W5        30.51S WCI -18
FARIBAULT      FAIR      -9 -15  77 CALM      30.50R
OWATONNA       CLEAR    -15 -20  76 SW5       30.49R WCI -27
WASECA         CLEAR    -15 -20  76 W3        30.51R
ALBERT LEA     CLEAR     -9 -15  77 W3        30.48R
$$
MNZ078>079-086>088-094>096-270900-
   Southeast Minnesota

CITY           SKY/WX    TMP DP  RH WIND       PRES   REMARKS
ROCHESTER      CLEAR    -12 -16  82 W10       30.45S WCI -31
RED WING       CLEAR     -9 -17  70 W3        30.50R
STANTON        CLEAR     -8 -14  74 SW5       30.50R WCI -20
DODGE CENTER   PTCLDY   -11 -17  77 W7        30.45S WCI -26
WINONA         CLEAR     -8 -13  77 CALM      30.52S
AUSTIN         CLEAR     -8 -11  84 NW7       30.47S WCI -22
PRESTON        CLEAR    -10 -15  80 NW6       30.46S WCI -24
$$
ABBREVIATIONS USED IN REMARKS
   TC - TEMPERATURES IN CELSIUS
  WCI - WIND CHILL INDEX
   HX - HEAT INDEX
  VSB - VISIBILITY
$$



USA.gov is the U.S. government's official web portal to all federal, state and local government web resources and services.